Location: Long Geng
(2.6167°N, 114.1333°E)
Time: 23:19:37
(UTC+00:00)

Cosmos 2227 - Pass Details

Date: 14 May 2021
Orbit: 835 x 860 km, 71.0° (Epoch: 12 June)

Event Time Altitude Azimuth Distance (km) Brightness Sun altitude
Rises 20:42:35 0° 348° (NNW) 3,372 7.4 -22.0°
Reaches altitude 10° 20:45:01 10° 350° (N) 2,438 6.7 -21.4°
Maximum altitude 20:50:36 74° 75° (ENE) 866 4.3 -20.1°
Drops below altitude 10° 20:56:11 10° 159° (SSE) 2,444 6.6 -18.8°
Sets 20:58:38 0° 161° (SSE) 3,381 7.3 -18.3°
